Wind_Speed
41 40 41 41 41 42 44 45 45 45 44 42 41 41 43 43 39 37 38 39 40 41 41 42 43 43 42 42 42 42 42 42 41 41 41 41 41 41 40 39 38 38 37 37 36 35 35 34 35 35 33 32 32 31 31 31 31 31 30 29 29 27 25 21 14 11 15 15 14 14 15 20 25 27 29 31 33 32 29 27 25 23 19 16 14
40 41 40 41 42 43 45 46 46 45 43 41 39 39 41 39 35 34 37 39 40 41 42 43 43 43 43 44 44 43 43 43 42 41 41 41 41 41 40 40 39 39 37 37 37 36 35 35 35 35 33 32 32 32 32 32 31 31 30 30 30 29 27 24 19 14 14 16 15 14 14 17 23 26 28 31 33 31 29 27 25 22 19 16 14
40 40 39 40 42 43 43 44 44 44 43 41 39 38 37 36 35 36 38 39 40 41 43 43 42 42 42 43 44 44 44 44 43 43 43 42 41 41 41 41 40 40 39 38 38 37 35 35 35 35 33 32 33 34 34 34 33 32 31 30 30 29 28 26 22 17 16 15 15 15 15 17 22 25 27 30 31 30 29 28 25 22 19 17 15
35 37 37 38 39 39 40 41 41 41 42 41 41 39 36 34 36 38 40 40 40 41 41 41 41 41 42 42 43 44 45 45 45 44 44 43 42 42 41 41 41 40 40 40 39 37 36 36 36 35 33 33 34 34 34 34 33 33 33 32 31 30 28 26 24 21 18 16 15 15 16 18 21 24 26 27 28 28 28 25 23 21 19 18 16
31 34 35 35 36 37 38 38 38 39 40 41 41 41 37 34 34 38 40 39 39 40 40 40 41 41 43 45 45 45 45 46 46 46 44 43 43 42 41 40 41 41 41 41 39 38 38 38 38 35 34 34 34 34 34 34 33 33 33 32 31 30 29 27 26 23 20 18 16 15 16 18 20 22 24 26 27 27 25 23 22 21 20 19 17
26 30 32 32 33 35 36 36 37 38 39 40 41 40 38 35 33 36 38 38 38 39 39 40 41 43 44 46 46 46 45 45 46 46 45 43 42 42 41 40 40 40 40 40 39 39 39 39 38 36 35 35 35 35 34 33 33 33 32 32 31 29 28 27 26 24 22 20 17 16 18 20 21 21 23 27 28 27 25 23 23 22 21 21 18
25 28 31 32 33 33 35 36 37 37 38 39 40 39 37 35 34 35 36 37 37 39 40 41 43 44 44 45 45 46 45 44 45 45 44 43 42 41 41 40 39 39 39 39 39 38 39 39 38 37 37 38 37 36 34 33 33 33 32 32 30 28 28 27 26 24 23 21 19 19 20 22 23 22 23 26 26 25 24 24 24 24 23 22 20
35 36 35 35 35 36 37 37 37 37 37 38 38 39 37 36 36 36 36 37 38 40 41 42 43 43 43 44 45 45 44 43 44 44 43 43 42 41 41 40 39 38 38 38 38 37 38 38 39 39 39 38 38 37 36 34 33 33 32 31 30 29 29 27 26 25 24 21 20 20 21 23 24 21 21 24 24 23 24 24 24 25 24 24 22
31 37 37 36 36 38 38 37 37 38 37 37 38 38 38 37 37 37 37 38 40 41 42 42 42 41 41 43 44 44 44 45 46 45 44 42 42 41 40 40 39 38 37 36 36 36 37 37 38 39 39 38 37 36 36 35 34 33 32 31 30 29 29 28 27 26 24 21 20 20 19 22 24 23 22 24 26 26 25 24 23 24 23 24 23
24 29 33 36 37 37 36 35 36 38 38 39 39 38 37 37 37 37 38 38 39 40 41 41 41 42 42 43 43 43 45 47 47 47 45 43 42 40 39 39 39 38 37 35 35 36 36 37 38 38 37 36 35 35 34 34 33 33 32 32 31 30 28 28 28 27 24 22 22 21 19 21 25 27 27 28 28 27 24 23 24 22 20 19 18
27 30 33 36 37 36 36 36 37 38 39 40 40 39 39 38 38 38 38 38 39 39 40 41 42 43 43 43 43 44 46 48 47 46 46 45 43 41 40 38 38 37 37 36 36 36 36 36 37 37 36 35 35 34 34 34 34 34 34 34 33 32 31 30 29 28 26 24 24 23 23 23 26 29 29 28 26 25 25 24 24 21 18 15 12
33 36 35 34 34 34 36 37 37 38 40 41 41 40 39 38 39 40 39 39 39 39 40 42 43 44 43 43 44 45 47 49 47 46 47 47 45 43 40 39 38 37 37 37 37 36 35 35 36 37 37 36 36 34 34 33 33 34 35 35 34 33 33 33 32 30 28 27 26 26 27 26 27 28 29 27 26 26 24 22 22 22 21 18 15
32 36 35 32 32 34 36 37 38 39 40 41 41 41 40 39 40 40 41 41 40 40 41 42 43 43 42 42 44 46 48 47 46 47 47 48 47 44 41 39 39 38 38 38 37 36 35 35 35 36 37 37 35 34 32 31 30 31 33 33 32 32 32 33 33 30 30 29 29 30 31 29 28 28 28 27 26 25 23 22 22 23 22 22 21
17 24 29 30 30 31 32 33 34 38 41 42 41 39 40 41 41 41 41 40 39 39 41 42 42 42 42 43 45 46 46 45 45 47 48 47 47 46 42 40 39 39 39 39 38 37 37 36 36 37 37 37 36 34 32 30 29 30 31 31 30 30 30 31 31 29 30 30 30 32 33 31 30 29 27 26 25 25 25 25 24 24 24 24 22
12 14 20 26 29 28 27 26 24 26 30 35 39 40 40 40 41 41 40 40 40 41 42 42 42 42 43 44 44 43 44 44 44 46 47 47 47 46 43 40 40 40 40 40 40 39 39 38 38 38 39 39 37 35 33 31 29 29 30 30 30 30 30 31 30 30 30 30 31 32 31 31 30 28 26 24 25 26 25 23 24 25 25 22 19
16 14 15 20 24 24 26 29 29 28 26 25 27 33 37 39 40 40 39 39 40 41 40 41 41 41 43 43 41 42 44 44 43 45 45 45 45 46 44 41 39 39 39 39 40 40 40 40 40 39 40 40 38 36 33 31 30 29 30 31 31 31 31 31 30 30 31 31 32 32 30 29 28 26 24 23 24 26 24 21 23 25 22 17 16
19 19 18 19 20 20 23 29 34 36 33 30 29 29 31 35 38 39 38 38 38 39 40 41 42 42 42 41 41 42 43 42 42 44 44 43 44 45 44 40 38 38 39 39 39 40 40 41 41 40 40 39 38 36 34 32 31 30 31 31 31 31 31 30 29 30 30 30 29 29 28 27 26 25 24 23 24 26 26 23 24 25 21 16 14
19 20 20 21 21 19 19 24 29 32 33 34 33 32 32 33 36 37 38 38 38 39 40 40 41 42 42 42 42 43 43 42 41 41 42 43 44 45 44 40 36 36 37 37 38 39 40 41 42 42 41 40 38 37 35 33 32 31 31 31 30 31 31 30 29 28 27 26 25 25 25 26 25 23 23 24 25 27 28 28 29 28 25 20 17
18 19 21 22 22 20 19 20 25 29 30 32 35 35 34 34 35 36 38 39 39 39 39 38 38 39 41 42 44 44 42 41 39 40 40 41 43 45 43 39 36 36 35 34 35 37 39 41 42 43 42 40 39 37 36 36 34 33 33 32 31 33 33 31 30 29 28 26 25 24 24 24 23 22 21 23 25 25 27 29 31 30 28 25 21
20 20 22 23 24 23 21 20 23 27 30 34 37 36 35 34 34 35 36 38 38 37 37 37 36 37 39 40 42 44 43 41 40 40 40 41 43 44 42 40 38 36 34 33 33 35 37 39 41 42 42 40 40 38 37 37 36 34 35 34 34 36 35 33 32 31 30 29 27 26 25 24 22 22 21 22 22 22 24 28 31 30 28 27 24
25 22 22 24 25 26 25 23 23 25 29 34 37 36 35 36 36 35 36 37 37 37 36 36 36 35 36 37 38 41 43 42 41 40 40 41 43 44 43 43 40 36 33 34 35 35 37 39 41 43 43 42 41 39 39 38 36 36 38 38 38 37 34 33 33 32 30 30 28 27 26 24 23 22 22 22 22 22 24 27 29 28 27 26 23
30 27 25 24 25 26 26 25 24 25 27 31 34 33 34 38 39 37 36 35 35 35 35 35 34 34 34 34 36 38 40 41 42 41 41 41 43 45 46 45 42 37 35 35 36 37 38 41 43 45 45 44 42 41 40 40 39 40 42 40 37 35 32 31 32 32 31 30 29 28 27 26 25 24 23 23 23 23 25 27 27 26 25 24 22
32 31 29 27 26 26 26 26 27 26 27 30 33 33 35 38 38 36 36 35 34 33 33 31 30 31 31 32 34 37 38 39 41 42 42 41 42 45 47 46 43 40 39 38 38 39 40 41 42 43 45 45 44 43 43 42 42 42 41 38 36 34 32 30 30 31 32 30 30 30 30 28 27 27 26 25 25 25 26 27 27 26 25 23 22
31 31 31 29 28 25 23 23 25 26 27 30 32 34 34 33 29 25 22 21 22 25 27 29 28 28 28 29 32 34 36 38 40 41 42 42 42 44 46 47 45 44 43 41 40 41 43 42 42 42 44 46 46 46 45 43 43 43 40 37 36 34 31 30 29 30 31 31 31 31 31 31 30 30 30 29 27 26 26 26 26 26 25 23 22
30 30 30 29 28 26 23 21 22 24 27 29 31 33 31 27 26 24 22 18 18 19 22 22 22 24 25 26 28 32 35 37 38 39 39 40 41 43 45 48 47 45 45 43 43 44 46 45 43 42 42 43 45 45 44 43 43 42 39 37 36 34 33 32 30 29 30 31 32 31 32 33 33 33 32 31 28 27 27 27 27 26 25 24 23
30 29 29 29 29 27 25 24 24 24 26 28 32 34 31 28 29 30 31 29 27 24 21 21 19 20 23 25 26 29 32 34 35 36 36 37 39 42 45 48 47 45 45 45 45 45 42 39 37 37 38 40 43 44 44 43 43 41 38 37 37 36 35 34 31 30 31 31 31 32 33 34 34 32 31 29 28 28 28 29 29 28 27 26 25
30 28 28 28 27 25 24 25 27 28 28 28 30 32 32 30 30 30 30 29 28 27 25 21 18 18 22 24 25 27 31 34 35 35 35 35 37 40 44 46 44 41 43 44 44 42 38 33 32 33 34 37 41 44 44 44 43 41 39 37 37 37 38 37 35 34 33 32 32 33 34 33 31 29 28 27 27 27 27 28 29 30 29 27 26
28 24 23 22 21 20 22 24 27 29 30 30 29 29 30 30 31 33 34 33 30 28 27 26 26 26 26 26 25 25 28 33 36 37 38 37 36 38 41 44 43 41 42 42 42 39 34 30 28 29 32 35 38 39 39 38 38 39 38 37 37 37 37 36 35 35 34 34 33 33 32 31 29 28 27 27 27 25 24 25 27 28 28 25 23
15 13 11 11 11 13 16 19 22 25 28 30 28 28 29 30 31 32 35 38 39 38 36 35 37 38 36 33 29 25 25 32 38 41 40 37 37 38 40 43 45 45 44 43 41 37 31 27 27 29 30 31 32 33 33 32 32 33 35 36 36 36 35 34 35 36 35 34 33 32 31 29 29 28 27 27 26 23 22 23 24 25 24 23 22
20 17 13 6 2 4 7 10 12 15 18 20 21 20 20 21 21 22 25 29 34 38 40 40 42 43 41 37 34 30 28 32 37 38 36 36 37 38 39 41 45 47 46 40 35 33 32 30 30 31 30 28 29 31 31 30 29 30 33 35 35 35 35 37 38 37 35 33 33 32 31 29 29 28 27 27 26 23 22 23 23 24 24 23 23
25 23 22 18 14 9 5 2 3 6 8 10 11 10 8 6 7 10 14 16 20 24 29 31 34 37 38 35 33 32 31 32 32 33 35 36 36 37 38 39 41 47 47 39 31 31 33 30 28 28 29 29 31 31 30 30 31 33 34 33 34 35 38 39 38 35 34 34 34 32 32 31 30 29 29 29 27 25 24 23 23 25 26 26 25
28 26 25 24 24 22 18 13 9 7 7 7 6 5 5 6 6 5 3 5 9 13 17 19 21 25 28 29 30 31 33 34 35 37 37 36 36 37 39 40 41 47 49 42 34 33 33 29 26 27 28 28 29 29 29 30 32 34 33 32 33 37 39 39 36 35 35 36 35 33 32 31 31 31 31 30 28 25 24 25 25 25 26 27 27
33 31 28 26 26 26 25 23 20 16 14 13 12 12 11 9 8 10 11 9 6 4 5 10 14 17 19 21 26 31 34 36 38 39 39 38 39 39 37 37 38 41 42 39 34 31 30 28 27 27 28 28 29 29 30 31 32 32 33 34 35 37 38 36 34 33 33 31 31 31 30 30 30 30 30 29 28 26 24 25 25 26 26 26 26
34 34 33 29 26 25 25 25 23 22 22 21 20 19 17 13 10 12 13 13 12 12 12 9 3 5 8 12 18 26 32 35 37 37 36 35 36 36 32 29 29 32 36 35 31 28 26 26 25 26 28 29 30 30 31 31 31 32 34 35 36 37 37 35 34 33 30 26 24 24 25 25 26 27 27 26 25 24 23 23 24 25 26 25 25
34 34 34 31 28 26 26 26 25 24 24 24 24 22 20 18 18 18 17 14 12 12 16 19 18 13 7 3 7 13 20 26 29 29 28 27 28 27 25 23 24 28 32 31 28 26 26 26 26 28 29 30 30 31 31 32 32 34 35 36 36 35 34 33 32 32 30 27 26 26 25 25 26 27 28 27 25 24 23 23 23 25 27 26 26
35 34 33 30 27 27 27 28 28 27 25 24 25 25 25 23 21 20 20 19 17 15 17 20 21 21 19 14 7 1 5 11 16 18 18 19 20 20 21 21 21 23 26 27 26 25 24 24 25 26 27 27 27 28 29 30 31 33 35 35 36 35 33 32 32 33 33 33 33 32 29 28 29 29 29 28 28 27 26 25 25 25 27 27 27
35 36 35 31 27 26 27 29 30 29 28 27 26 26 27 26 23 21 21 20 19 18 19 22 23 23 23 21 17 12 7 2 6 9 10 10 11 14 16 17 17 16 17 19 21 20 19 18 19 20 21 22 23 24 25 24 25 26 27 28 29 30 28 28 30 33 35 35 34 32 30 31 32 31 29 29 29 27 26 25 25 25 27 27 27
35 38 38 34 30 28 28 28 29 29 28 28 27 26 24 23 23 22 21 21 21 20 21 24 26 25 23 22 19 15 11 8 8 11 12 11 11 9 7 7 9 9 10 11 13 14 15 15 16 16 17 17 18 20 21 21 20 20 21 22 23 23 22 23 26 29 29 29 29 29 29 30 32 32 31 31 30 29 27 26 24 24 26 26 26
35 37 38 37 35 33 31 30 30 29 27 26 27 27 26 24 23 22 21 21 22 22 22 23 24 24 23 22 20 17 16 15 14 14 14 12 10 8 6 4 3 2 3 5 6 8 10 12 13 13 14 14 15 17 18 19 20 21 21 21 22 22 24 26 26 25 26 27 27 27 28 30 31 32 33 33 32 31 29 27 25 25 25 26 26
32 34 37 37 36 34 34 34 33 32 30 27 27 27 27 25 24 22 21 21 21 21 22 23 24 25 25 24 22 21 21 19 18 16 15 13 11 10 9 9 8 6 4 4 5 6 8 9 11 13 14 14 15 16 18 19 20 21 23 23 24 27 29 29 27 25 26 28 28 30 31 31 30 31 32 33 33 31 29 28 27 27 26 26 25
31 32 35 36 35 34 34 34 33 31 31 30 29 27 26 25 24 24 23 23 22 22 23 24 25 27 28 27 25 25 24 21 18 18 17 15 13 13 12 11 10 9 8 7 7 7 8 9 11 12 13 15 16 17 18 20 21 23 24 26 28 30 31 30 28 27 28 28 29 31 32 30 29 30 32 32 31 30 29 29 29 28 28 27 25
32 32 32 33 33 33 32 31 31 31 31 31 30 29 27 26 26 26 26 26 25 25 25 25 26 28 30 29 29 28 27 24 22 21 20 18 16 14 13 13 12 11 9 8 8 8 9 9 10 12 13 14 16 17 19 21 22 24 27 29 30 30 29 28 27 27 27 27 29 30 28 26 28 31 32 31 30 30 29 29 29 28 28 28 26
32 32 32 31 31 31 30 30 30 31 30 29 30 30 30 29 29 28 27 28 28 27 27 27 28 30 32 32 31 31 29 27 25 24 22 21 19 17 17 19 18 16 12 10 7 7 8 9 10 11 13 13 14 17 20 22 24 26 27 27 28 27 27 27 27 27 27 28 29 29 27 26 28 30 30 30 30 30 30 30 29 28 28 27 27
31 31 32 31 31 31 30 30 30 30 29 29 30 30 30 29 29 28 27 27 27 28 28 28 28 30 31 33 34 33 32 31 30 28 26 24 21 19 20 22 20 18 16 14 11 8 7 7 8 9 11 12 13 16 18 20 21 21 21 22 23 25 26 26 26 26 27 28 28 28 27 27 29 29 29 29 29 29 30 30 29 29 28 27 26
30 30 30 31 31 31 31 31 30 30 30 30 30 29 28 28 28 28 27 26 26 27 27 28 29 29 29 30 32 32 32 32 33 32 30 29 27 25 24 24 22 20 19 18 16 12 8 6 6 5 4 4 6 11 14 16 16 15 15 16 18 21 23 23 23 23 24 24 24 24 26 28 30 30 29 29 29 29 30 30 30 29 28 27 25
29 29 29 30 30 30 31 30 30 30 31 30 28 27 27 27 28 28 28 27 27 27 27 28 29 29 29 29 30 31 32 32 33 34 33 32 32 30 28 27 26 24 22 21 19 18 14 8 3 2 2 4 4 4 8 14 16 16 15 14 13 14 15 17 19 22 22 21 20 20 23 27 30 31 30 29 28 29 29 30 30 28 27 26 26
28 28 28 28 27 28 29 29 29 30 31 30 28 27 27 27 27 28 29 29 28 28 29 29 29 29 30 31 30 30 30 30 31 33 33 34 34 33 31 30 29 28 26 23 21 20 19 16 12 8 6 6 7 6 3 3 7 9 10 9 9 8 9 12 15 18 18 18 18 17 18 21 23 25 26 27 27 28 30 29 28 27 27 27 27
27 26 26 26 26 26 27 28 28 29 29 28 27 27 28 28 28 28 28 29 29 29 29 30 30 30 31 31 31 30 30 29 30 31 32 32 33 34 33 33 32 30 29 27 24 22 20 19 18 17 15 14 13 13 12 10 7 4 2 2 3 5 6 8 10 12 13 15 15 16 17 18 20 21 22 25 27 29 29 29 28 27 26 26 27
28 27 26 26 25 25 24 24 25 26 26 27 26 26 27 28 28 28 27 27 28 28 28 29 29 29 29 30 30 31 32 33 33 33 32 30 31 31 31 32 33 32 32 31 29 26 24 22 20 19 18 17 16 15 14 13 12 11 9 7 4 2 4 6 7 8 8 9 10 11 12 14 16 19 21 23 25 27 27 26 25 24 23 23 25
28 28 28 27 27 25 24 23 23 23 23 24 25 25 25 26 26 27 26 26 27 28 28 28 28 28 28 28 28 30 31 33 33 33 33 31 30 29 29 29 30 30 30 31 31 30 28 26 24 23 21 20 18 17 15 14 13 12 10 9 7 4 2 2 4 5 5 5 6 6 7 8 10 13 16 18 21 22 23 23 22 21 20 21 22
27 27 28 28 28 27 26 26 25 24 23 23 23 23 23 23 23 23 24 24 25 25 25 25 26 27 28 29 29 29 30 30 30 31 32 32 30 29 28 28 27 26 26 27 29 30 30 29 27 25 24 22 21 19 18 16 14 12 10 7 6 5 5 3 1 2 3 4 5 5 6 6 7 9 11 14 17 20 21 21 21 20 19 19 20
Wind_Direction
200 200 201 202 203 205 206 208 209 209 209 208 208 208 203 198 200 203 205 208 211 214 216 218 219 219 219 219 218 217 216 216 216 215 217 219 222 224 225 227 228 230 231 230 230 230 230 230 232 234 234 235 237 238 237 236 236 234 236 239 240 240 240 231 228 249 256 255 258 257 253 246 239 237 236 234 232 229 227 227 226 227 232 237 246
201 201 202 202 204 206 207 209 210 211 211 210 211 213 209 204 205 205 204 207 210 213 216 218 219 219 219 219 219 217 216 216 215 214 215 217 219 220 222 224 227 228 228 229 229 228 229 231 233 233 233 234 235 234 234 234 234 235 235 237 239 240 239 234 229 236 249 253 253 253 253 244 237 235 234 232 231 226 221 219 220 225 232 237 245
204 203 203 204 206 207 208 210 212 213 214 215 216 219 217 212 210 208 207 208 210 213 216 217 217 218 219 220 220 218 216 216 216 216 216 216 217 219 221 222 225 226 226 227 227 226 226 228 231 231 231 232 233 233 234 235 235 235 236 236 238 239 239 236 232 232 238 243 245 248 248 242 237 236 234 232 229 222 216 216 221 227 233 237 244
209 206 206 207 208 208 210 212 214 214 216 218 220 221 221 216 211 210 209 208 209 212 215 216 216 217 218 220 221 220 218 216 216 217 217 217 217 219 220 222 223 225 225 226 226 224 223 225 228 229 228 229 232 232 234 236 236 236 236 238 239 239 238 237 235 236 236 235 236 241 245 241 235 233 229 223 219 215 215 219 226 232 236 239 243
219 211 208 208 208 210 212 213 215 217 218 220 222 223 222 220 215 211 208 207 209 211 214 215 216 216 217 219 221 221 219 216 216 217 217 217 218 220 221 222 223 225 226 226 226 224 223 225 226 227 226 227 230 231 232 234 235 236 236 238 239 239 239 238 239 239 235 232 231 231 234 232 227 224 220 212 208 210 216 223 230 235 237 238 242
228 219 211 210 210 211 213 214 216 219 219 221 222 222 223 223 220 214 209 207 209 211 212 214 215 216 218 219 220 221 221 218 216 217 217 217 218 220 222 223 224 225 226 226 226 225 224 225 226 226 225 226 229 230 231 232 233 234 235 236 238 238 237 238 239 237 233 232 229 222 222 221 216 216 216 211 208 210 216 223 230 235 236 236 240
231 231 219 213 213 214 214 216 218 219 221 222 222 223 223 222 221 217 213 210 209 210 212 214 216 217 218 218 219 221 221 219 218 218 217 217 218 220 221 223 224 226 227 227 227 226 226 226 226 226 226 227 229 230 231 231 232 234 235 235 235 236 235 236 235 232 229 228 226 221 219 216 213 213 212 211 214 218 221 224 229 232 232 234 239
216 225 223 216 213 215 217 217 218 220 222 223 223 223 223 222 221 219 216 212 211 212 213 214 216 218 218 218 219 220 220 220 219 218 217 217 217 219 221 222 224 225 227 228 227 226 227 227 226 227 228 229 230 231 232 232 232 233 234 234 234 234 234 234 233 229 227 224 223 223 219 210 207 207 206 206 211 219 224 228 233 235 232 232 238
214 217 218 217 215 215 216 217 217 218 220 223 224 224 223 222 220 218 217 214 213 213 214 215 216 217 218 218 219 220 220 220 219 218 216 215 216 217 220 222 223 225 226 227 227 227 227 227 227 228 229 231 233 234 234 235 234 235 235 234 233 233 234 233 230 226 223 222 223 221 214 207 204 200 198 202 209 218 224 226 233 238 235 234 237
240 230 221 217 217 216 215 215 215 216 217 220 222 222 222 221 219 218 217 216 214 214 214 215 216 217 217 218 219 219 220 221 221 219 216 214 214 216 218 220 222 223 225 226 227 227 227 227 228 229 230 233 235 235 235 236 237 241 242 240 237 234 230 227 225 223 221 220 220 215 208 208 207 204 204 209 214 221 224 222 226 231 231 232 236
246 244 234 223 217 214 213 213 213 214 215 217 220 220 219 219 219 219 218 216 215 214 213 214 216 217 218 217 218 219 220 222 222 219 217 216 215 215 217 219 221 222 223 224 226 227 227 227 228 229 230 232 234 236 236 238 240 244 246 246 243 239 232 224 221 222 222 222 223 219 212 212 213 212 212 214 216 220 223 221 221 221 217 217 224
234 237 236 228 220 215 212 212 212 212 213 215 217 218 218 218 218 218 218 217 215 214 213 214 216 217 218 218 218 220 222 223 222 220 219 218 216 215 216 218 219 221 222 223 225 226 226 226 227 229 230 232 233 234 236 238 242 245 246 245 244 243 239 233 229 227 225 224 225 224 221 220 218 215 215 217 218 220 221 221 220 217 213 213 219
227 232 234 230 225 220 216 212 211 212 214 215 217 217 216 217 218 218 218 217 216 214 214 215 216 217 217 218 220 222 224 224 223 221 220 219 217 215 215 217 218 220 221 222 224 225 224 224 224 226 229 231 231 231 234 237 240 243 243 242 241 240 239 238 237 237 237 234 230 229 229 227 223 222 223 222 220 217 216 218 220 218 215 218 226
234 239 240 237 232 228 224 219 216 215 214 214 216 216 215 216 217 217 218 217 215 215 215 216 217 218 217 218 221 223 225 225 223 222 221 219 217 215 214 216 218 220 221 222 222 222 223 222 222 223 226 228 228 230 233 236 238 238 236 235 235 235 234 235 237 239 241 240 237 237 237 233 231 234 234 226 221 221 220 221 222 220 221 227 234
265 259 251 243 237 232 231 234 237 236 230 221 216 214 214 216 217 216 217 216 215 216 216 216 218 218 218 220 221 224 226 226 224 224 222 219 217 215 214 215 218 220 221 221 221 221 221 222 222 223 225 227 228 229 232 234 234 232 230 230 233 233 234 235 236 237 240 242 243 244 244 242 241 240 236 230 227 228 228 231 234 230 226 228 230
266 264 259 252 244 234 230 232 237 246 255 255 240 224 217 216 217 216 217 216 216 217 217 217 218 219 219 220 222 225 228 227 226 225 223 220 216 214 214 215 216 218 220 220 220 220 221 221 222 224 226 227 228 229 231 232 231 228 228 231 233 233 235 236 237 240 243 244 245 247 247 247 243 237 235 234 232 230 228 233 239 233 221 216 218
260 258 258 260 258 251 240 232 228 230 236 248 257 249 233 223 219 216 216 217 216 217 217 217 218 219 219 219 220 224 228 228 227 226 223 219 215 212 212 214 216 217 218 219 218 218 219 221 222 224 226 227 227 227 228 229 229 228 229 231 232 232 233 234 235 238 240 241 243 244 243 241 237 233 233 232 232 230 222 217 224 223 211 203 211
251 254 256 259 263 263 256 242 233 228 224 226 235 242 242 237 229 220 216 217 218 218 218 219 219 218 218 219 220 224 228 228 227 226 223 219 215 212 211 212 215 217 218 218 218 217 219 222 223 224 225 226 227 226 225 226 227 228 230 230 230 231 231 230 229 230 230 232 233 233 232 233 232 231 229 224 224 228 224 218 218 214 205 204 213
244 249 255 261 262 263 261 251 240 234 229 225 225 227 230 235 237 231 222 217 218 219 219 219 221 220 220 221 222 224 227 229 228 225 223 219 215 212 210 210 214 216 216 216 216 216 218 222 223 224 226 227 226 224 223 224 226 230 233 229 226 229 230 228 226 225 224 223 223 223 225 227 226 224 221 216 216 224 229 227 220 211 205 210 214
258 253 255 261 262 260 257 253 245 237 232 230 230 227 223 225 233 238 233 223 218 219 219 219 221 223 222 222 223 224 226 228 229 226 223 220 215 211 208 209 212 213 212 212 213 214 217 220 222 224 226 227 226 224 223 224 226 232 234 229 227 231 232 227 225 225 224 222 221 221 221 221 220 217 214 210 210 217 225 227 223 218 215 215 213
271 264 258 257 259 260 256 251 246 242 237 234 232 228 225 223 225 232 237 232 222 217 218 219 221 224 225 224 224 226 227 227 228 227 224 221 217 211 208 211 212 210 208 210 211 213 215 218 220 222 223 224 224 223 222 224 228 234 236 235 235 236 233 227 225 224 223 221 220 218 217 216 214 212 211 210 210 213 217 221 224 225 223 220 216
274 271 264 256 253 255 256 253 248 244 242 239 231 224 222 223 222 224 231 236 230 221 217 217 218 221 225 225 226 227 227 227 228 227 225 222 218 213 211 213 212 208 206 208 211 213 217 219 221 222 221 221 221 222 223 226 229 233 236 239 239 236 232 230 227 222 219 218 217 216 214 212 210 209 209 211 212 212 213 215 219 223 226 228 227
272 268 264 258 254 254 255 254 250 245 243 241 235 227 223 222 221 220 223 230 233 227 220 217 218 220 222 222 224 227 227 228 229 229 227 224 220 216 214 214 212 208 207 209 212 215 219 222 222 221 220 219 220 221 223 226 228 231 235 237 236 233 231 230 226 221 218 216 216 217 215 213 212 213 213 214 214 214 214 216 220 224 228 232 236
267 262 260 257 254 252 251 252 250 246 243 240 235 231 228 224 220 220 227 239 246 242 231 220 215 218 221 221 222 223 225 227 228 229 229 226 222 219 216 213 212 211 210 212 214 217 221 224 222 221 221 219 221 222 223 225 228 230 231 233 233 230 227 225 222 219 216 215 216 218 218 217 218 220 222 223 222 221 221 223 225 228 231 234 239
257 251 249 248 246 244 245 251 255 253 249 239 230 227 225 218 213 218 229 243 256 263 262 250 231 222 221 221 221 221 222 225 227 228 229 228 225 223 217 213 212 212 212 213 216 220 225 226 223 221 220 220 221 223 222 224 228 228 228 229 228 224 223 223 220 216 214 215 218 221 223 224 226 229 231 231 228 227 226 226 227 229 231 234 239
242 239 238 237 239 241 245 251 255 257 254 242 231 226 219 209 206 210 214 218 223 229 243 257 256 245 233 226 222 219 218 220 224 225 226 225 224 223 217 211 211 213 214 216 219 222 225 225 222 220 220 220 222 222 222 225 227 225 224 225 224 221 221 220 216 214 215 217 220 223 227 231 233 234 235 234 232 232 231 230 230 230 230 234 239
221 223 228 230 232 236 244 250 251 250 249 242 231 225 219 209 204 203 203 206 211 213 215 223 238 247 244 234 225 218 215 216 219 221 222 221 220 219 215 209 208 211 213 215 218 221 222 222 222 222 223 224 223 222 224 226 223 219 218 221 221 221 222 221 219 219 219 220 222 226 229 232 234 234 233 233 234 236 235 234 233 233 234 236 239
201 203 215 224 229 235 243 247 245 241 239 236 228 221 217 211 206 205 205 204 205 207 207 208 215 224 232 232 226 217 212 212 213 216 218 216 214 213 211 207 206 209 211 212 215 217 218 217 218 221 222 221 219 219 220 221 217 215 216 218 218 220 221 221 221 223 223 222 222 224 225 227 230 232 232 231 233 236 236 235 234 234 235 233 232
152 158 182 213 227 235 240 241 239 235 232 231 226 220 218 215 212 213 213 211 211 211 208 207 211 216 220 223 221 213 209 213 216 217 218 216 214 213 210 207 207 210 212 212 211 210 211 211 213 215 216 215 214 214 215 214 214 215 217 217 216 216 215 214 217 221 222 219 218 218 219 223 228 230 228 228 231 233 233 232 232 233 233 230 228
74 78 82 80 127 207 231 235 238 237 231 225 220 219 222 223 222 224 223 220 219 220 218 218 219 217 216 217 217 213 214 219 220 220 220 220 219 217 215 213 212 212 213 211 206 205 207 210 213 214 213 211 210 211 210 209 208 211 214 214 213 211 211 213 217 220 219 218 217 218 219 221 224 225 224 227 230 230 229 233 234 232 231 229 230
56 57 53 48 52 57 60 109 177 198 204 207 209 213 223 233 241 248 244 236 229 224 220 221 221 218 215 215 214 216 222 227 228 227 226 224 221 217 216 216 214 212 210 204 196 199 206 209 210 212 211 211 212 212 208 206 207 209 210 210 210 210 211 213 215 216 217 218 219 219 220 221 222 223 223 226 228 227 229 234 235 233 232 230 229
48 45 40 40 42 42 42 45 58 93 119 124 125 116 89 66 49 24 324 263 246 235 228 227 225 222 220 218 213 213 218 223 229 233 233 228 222 218 216 215 214 212 208 201 195 197 203 205 208 210 211 213 215 213 210 207 208 208 206 205 207 210 211 212 213 213 216 217 217 217 219 221 221 221 222 225 226 226 228 232 233 232 230 227 225
40 37 34 35 37 40 41 39 39 47 59 67 73 74 72 74 74 66 64 70 89 141 207 232 235 235 233 227 221 220 221 222 226 231 232 228 220 215 213 212 212 208 203 198 197 199 202 204 209 212 213 214 216 214 212 211 210 209 206 206 208 209 209 212 213 212 213 216 217 218 219 219 218 219 220 222 224 224 225 228 229 226 223 221 221
36 36 35 34 34 38 42 41 39 42 46 50 54 54 51 55 69 72 65 60 65 76 81 84 126 228 238 228 222 225 228 227 226 226 225 220 215 212 210 207 203 200 197 197 200 202 202 205 211 214 215 217 217 215 212 211 210 208 208 209 210 209 210 211 210 208 208 212 217 219 220 219 218 218 218 219 221 222 223 225 223 219 216 217 220
31 33 35 35 35 37 41 43 43 43 44 46 49 48 46 48 54 62 63 56 48 49 55 61 67 74 83 131 202 220 226 226 224 222 218 215 212 210 203 191 185 188 194 198 202 204 206 209 213 216 218 218 218 216 214 212 210 208 209 210 209 208 209 208 206 204 205 210 216 222 226 229 230 228 225 224 225 225 225 226 225 221 219 220 222
29 29 30 32 34 38 43 46 46 46 47 49 50 51 50 48 49 55 61 61 55 46 41 43 52 64 70 70 67 102 219 225 221 215 211 213 213 207 195 185 182 185 191 198 204 209 213 216 219 220 222 221 221 220 218 216 213 212 211 210 208 208 207 205 202 203 207 213 219 222 225 230 236 236 232 230 231 231 231 231 231 229 227 226 226
30 29 30 31 33 37 41 45 46 48 49 50 51 53 52 49 48 49 52 54 55 52 45 40 41 48 53 51 46 47 52 90 170 171 172 182 190 192 191 191 192 192 196 206 213 216 221 226 229 229 228 226 225 224 223 221 218 216 215 212 209 208 206 203 203 207 210 214 219 223 224 228 234 236 234 232 231 232 232 232 233 232 231 229 227
31 32 33 35 36 36 37 40 42 45 46 47 48 50 51 51 51 50 49 51 52 51 49 46 41 37 34 32 33 42 49 59 97 114 116 127 144 155 164 177 187 195 208 221 227 229 231 235 239 240 237 233 229 227 224 221 218 216 214 212 208 207 206 207 209 211 213 217 223 228 230 230 232 235 236 234 233 232 232 232 232 231 228 224 220
30 32 35 37 38 38 38 38 38 39 41 43 46 48 49 49 50 50 49 50 50 48 48 49 43 36 32 30 34 47 52 46 51 70 84 100 115 113 92 82 105 170 229 246 251 251 247 245 245 247 245 240 235 229 224 218 214 212 211 208 205 205 209 212 212 213 217 224 229 232 233 235 237 238 237 235 234 233 232 230 229 228 224 219 217
29 31 34 36 37 37 38 39 38 36 35 37 42 47 49 48 48 47 46 47 47 46 48 49 44 40 40 40 42 51 56 48 40 46 57 68 79 81 68 53 45 31 1 326 301 287 274 261 255 252 248 244 238 232 226 219 213 211 210 209 208 210 213 214 214 217 222 226 229 229 231 235 238 239 237 235 234 233 232 230 229 227 225 222 221
32 33 34 36 37 38 39 39 37 36 37 38 40 43 45 45 45 44 43 43 43 44 46 48 47 46 49 52 52 55 59 56 50 51 55 60 70 77 69 53 40 26 9 349 325 304 289 274 261 252 247 243 237 230 225 220 215 212 212 213 212 212 213 214 216 220 223 225 227 229 230 233 236 237 236 235 236 235 234 233 231 228 227 227 226
35 35 35 35 36 38 38 37 37 38 40 40 40 39 40 40 40 41 40 40 40 41 42 42 43 45 48 51 54 56 58 59 58 58 58 59 67 71 61 41 25 12 358 342 326 314 303 288 272 258 249 243 237 229 224 220 217 215 214 214 213 211 212 215 217 220 223 226 229 232 234 236 237 237 236 237 237 237 236 235 232 230 229 228 228
37 37 38 37 38 38 38 37 39 40 40 40 40 41 42 42 40 40 40 40 40 41 41 39 39 42 44 46 49 51 53 54 56 58 58 59 64 61 45 31 25 22 15 2 347 334 323 309 288 267 253 246 241 234 228 224 220 217 215 215 215 215 217 220 222 224 226 229 232 236 238 240 239 238 236 236 237 237 237 237 235 233 232 231 231
38 38 39 38 38 39 39 38 39 40 41 43 43 42 42 43 42 40 40 41 41 43 43 42 42 43 44 45 47 48 48 49 51 52 53 53 53 47 36 29 28 29 27 23 17 3 339 320 302 278 259 249 242 237 232 227 223 221 220 222 224 225 226 227 229 230 231 231 233 236 239 240 240 239 238 237 236 235 235 236 235 233 232 232 232
39 39 40 39 38 38 37 37 38 40 41 43 42 39 39 41 41 40 39 40 42 43 44 43 43 44 43 44 46 47 48 49 49 49 48 48 47 45 43 41 39 37 35 33 30 24 7 327 299 287 278 266 249 238 231 224 221 225 234 240 241 239 237 237 238 238 236 236 238 241 245 246 243 241 239 238 236 233 233 234 232 230 229 229 231
41 41 41 41 40 39 38 37 38 40 41 41 40 37 36 38 40 41 40 39 40 42 41 40 40 40 40 41 42 44 46 47 48 47 46 46 46 47 49 50 49 48 47 46 45 42 40 31 358 277 291 332 337 281 232 223 223 234 250 262 261 253 248 246 246 246 243 242 243 246 248 247 244 241 239 238 236 234 233 232 230 228 229 230 232
44 44 43 42 41 41 40 39 40 41 41 41 40 39 39 38 39 40 39 38 39 40 40 39 38 37 37 38 39 39 41 43 46 47 46 46 46 47 50 53 54 53 53 54 55 55 56 57 61 68 62 37 33 45 76 197 222 239 255 265 267 262 254 250 251 251 247 242 240 241 243 243 241 239 237 235 233 232 231 230 230 231 232 233 234
45 44 44 43 42 41 40 39 40 41 41 40 39 40 41 40 40 39 38 38 39 39 39 38 37 36 36 38 38 38 39 42 44 45 45 46 46 48 50 53 55 55 56 57 58 59 61 63 65 68 69 67 65 65 66 67 66 58 25 291 259 250 241 236 239 240 238 237 239 241 242 241 239 237 234 231 229 229 229 230 231 233 234 234 235
46 45 44 43 42 41 40 40 40 40 41 40 40 40 40 40 41 40 38 38 39 40 39 39 38 36 36 37 38 39 41 44 46 46 46 47 47 48 49 51 53 53 54 55 56 58 60 62 64 66 66 65 64 63 61 59 56 50 43 37 24 297 247 237 234 230 228 233 238 240 240 238 237 236 234 232 230 230 230 230 232 233 233 234 235
46 46 46 45 44 44 43 43 42 40 39 40 40 40 39 39 38 38 37 38 39 39 39 39 40 39 37 36 37 38 40 42 44 46 48 49 49 50 50 51 51 50 50 50 52 55 57 59 60 61 61 60 60 59 57 54 51 46 40 36 32 26 357 262 249 244 243 247 250 251 252 248 241 236 235 234 233 231 229 229 229 230 230 231 231
49 48 47 47 47 46 45 44 43 40 39 39 39 39 38 37 36 35 35 36 36 35 34 36 38 39 39 40 41 41 41 41 43 45 48 49 50 51 51 50 49 48 49 49 48 50 51 52 53 54 54 54 54 53 52 50 47 43 39 36 36 39 43 43 19 261 253 257 259 261 264 262 256 251 246 241 236 233 231 230 230 231 231 229 226
Height
713 716 718 721 724 726 729 731 734 736 738 740 742 745 744 742 743 747 751 756 762 767 771 773 776 779 781 782 782 783 785 786 787 789 790 791 792 794 795 797 797 798 799 800 801 802 802 802 803 803 805 806 807 808 809 811 812 813 814 815 815 816 816 817 817 816 816 816 817 817 818 818 818 819 821 822 823 825 827 829 831 833 834 834 834
711 713 716 719 721 723 725 727 730 732 735 736 738 743 743 738 737 742 747 752 756 761 765 768 772 775 778 779 779 779 781 782 784 785 786 787 789 790 792 793 794 795 796 797 797 798 799 800 800 801 803 804 805 806 807 808 809 810 811 812 812 813 814 814 815 815 815 815 815 815 816 816 816 817 818 819 821 823 825 827 829 830 831 832 832
708 711 714 716 717 720 722 724 727 729 731 733 735 739 739 734 733 739 744 748 752 756 760 764 768 771 774 777 777 777 777 778 780 781 782 783 785 786 788 789 790 791 792 793 794 796 796 797 797 799 801 801 802 803 804 805 807 807 808 809 810 811 812 812 813 813 813 814 814 814 814 814 814 815 816 818 819 821 823 825 827 828 829 829 830
709 710 712 713 715 718 720 721 724 726 728 729 731 733 734 733 732 735 740 744 747 751 756 760 764 767 770 773 775 775 774 774 775 776 777 779 781 782 784 785 786 787 789 790 791 792 793 794 794 796 798 799 799 800 801 803 804 805 806 807 808 808 809 810 811 811 812 812 812 812 813 813 813 814 815 817 819 820 822 824 825 826 826 827 827
712 711 711 712 713 715 717 719 721 723 724 726 727 728 731 732 732 733 736 739 743 747 752 756 760 762 764 767 770 771 771 770 770 771 772 774 777 779 780 782 783 784 785 786 788 789 790 791 792 793 795 796 796 797 799 800 801 803 804 805 805 806 807 808 809 809 810 810 810 811 811 812 812 813 814 815 817 819 821 822 823 823 824 824 825
713 712 710 711 711 713 714 716 718 720 721 723 724 726 728 731 732 733 733 735 739 744 748 751 754 757 759 762 765 767 768 768 767 766 768 770 773 775 777 778 779 781 782 783 784 786 787 787 789 790 792 792 793 794 796 798 799 800 801 802 803 804 805 806 806 807 807 807 808 809 809 810 810 811 813 814 816 817 819 820 820 821 821 822 822
710 712 711 709 709 710 711 713 715 717 718 720 722 723 725 728 730 731 732 733 736 740 744 747 750 752 755 758 761 763 765 765 764 764 764 766 768 771 773 774 776 777 778 780 781 782 783 784 786 787 788 788 790 792 793 795 796 797 798 799 801 802 802 803 804 804 805 805 806 807 807 808 809 810 811 813 815 816 817 817 817 818 819 819 819
700 707 709 706 704 705 707 709 712 714 716 718 719 721 722 725 727 729 730 731 733 737 739 742 745 748 751 754 757 759 762 762 761 760 761 762 764 767 769 770 772 773 775 776 778 779 780 781 782 783 784 785 787 789 790 792 793 794 795 797 798 799 799 800 801 802 802 803 804 804 805 806 807 809 810 812 813 814 814 815 814 815 816 816 817
696 700 703 702 700 700 703 706 708 711 713 715 716 717 719 722 723 725 728 729 730 733 735 738 742 745 747 750 753 755 757 757 755 755 756 758 760 762 765 767 768 770 772 773 775 776 777 778 778 780 781 782 784 786 787 789 790 791 792 794 795 796 797 798 799 799 800 801 801 802 803 804 805 807 808 808 809 809 810 812 812 812 814 814 815
698 700 700 697 696 697 700 702 704 707 709 710 712 714 716 718 720 722 724 725 727 729 732 735 738 740 742 745 748 750 751 750 750 750 752 754 756 759 761 763 765 767 768 770 771 772 773 774 775 777 778 780 782 783 785 786 787 788 789 790 792 793 794 795 796 797 798 798 798 800 801 801 802 803 804 804 805 807 808 809 809 810 812 813 813
698 701 699 695 693 694 696 698 700 702 704 705 707 710 712 714 717 718 720 721 723 725 728 731 733 735 737 740 742 744 744 744 745 747 748 750 753 755 757 760 762 763 765 766 767 768 769 771 772 774 776 778 779 781 782 784 785 786 787 787 788 790 791 792 793 794 795 795 796 797 797 797 798 800 801 802 804 805 805 806 807 809 810 810 811
698 700 698 694 692 691 692 694 695 697 698 700 702 705 708 710 712 714 715 717 719 721 723 725 727 729 732 734 737 738 738 738 741 743 744 746 748 751 754 756 758 759 761 762 763 765 766 768 770 771 773 774 776 778 779 781 782 783 784 785 786 787 787 788 789 790 791 792 792 793 792 793 795 797 798 800 801 802 803 804 805 806 807 808 808
695 695 693 691 688 688 689 689 690 692 693 695 697 699 702 705 706 708 710 712 714 716 718 720 722 724 727 729 731 731 732 734 737 739 740 742 744 748 750 752 754 755 757 758 760 762 763 765 767 768 770 772 773 775 776 778 779 780 781 782 783 784 785 786 786 787 788 789 789 788 789 790 792 793 795 797 799 800 802 803 803 804 804 805 805
688 687 686 685 685 685 687 687 687 687 688 690 692 694 697 698 700 703 705 707 710 711 713 715 717 719 722 724 725 726 727 729 732 734 736 738 741 744 747 748 750 751 752 754 756 758 760 762 763 765 767 768 770 772 773 775 776 777 778 779 780 781 782 783 784 785 785 785 785 785 786 788 789 791 793 795 796 798 799 800 801 801 802 802 803
682 682 681 681 681 684 686 687 688 689 689 689 689 689 691 693 695 698 700 702 704 705 707 709 711 714 716 718 720 722 723 725 727 729 731 734 737 741 743 745 746 747 748 749 751 753 756 758 759 761 763 765 766 768 770 772 773 774 776 776 777 778 779 780 781 781 782 782 782 782 784 785 787 789 791 792 793 795 796 798 800 800 799 801 802
679 679 678 678 679 680 682 684 686 688 690 692 692 690 689 690 692 694 696 697 699 701 703 705 707 709 711 714 716 717 718 720 723 725 727 730 734 737 739 741 742 743 744 745 747 749 751 754 756 758 759 761 763 765 768 769 771 772 773 773 774 775 776 777 778 778 779 779 780 780 782 783 785 786 788 789 790 792 793 796 799 799 798 799 800
677 676 676 676 676 677 677 678 679 681 684 689 693 694 692 690 689 690 692 694 695 697 698 700 701 703 706 709 711 712 713 715 718 720 723 727 730 733 735 737 738 739 740 741 743 745 747 749 751 754 755 757 760 762 765 766 767 768 769 770 771 772 772 774 775 775 776 777 777 778 779 781 782 783 785 786 788 790 790 792 795 797 796 796 797
674 673 673 672 672 673 673 673 675 677 679 681 685 689 692 693 691 689 688 690 691 692 694 695 696 697 700 703 705 706 708 710 713 716 718 721 725 727 730 733 734 735 736 738 740 741 743 745 747 749 751 753 756 759 761 763 764 765 766 767 768 768 768 770 772 772 774 774 775 776 777 778 779 780 781 784 785 786 786 787 790 792 793 793 794
670 670 669 669 670 670 671 671 671 673 676 677 678 680 684 689 692 691 687 685 686 688 690 691 693 693 695 697 699 702 704 706 709 711 713 716 719 722 725 728 729 730 732 735 737 738 740 741 743 744 746 749 752 754 757 758 760 761 762 763 763 763 764 766 768 769 771 772 773 774 775 775 777 778 779 780 782 782 783 783 785 787 788 789 791
666 667 666 666 667 668 668 669 669 670 671 672 674 675 677 680 686 689 688 685 682 684 686 687 688 690 691 692 694 697 699 702 704 706 708 710 713 716 719 721 722 724 728 731 733 734 736 737 739 740 743 745 748 750 752 754 756 757 758 758 757 757 760 763 765 766 768 769 770 772 773 773 774 775 776 778 779 779 780 781 783 784 785 787 788
661 663 663 663 664 664 665 666 666 666 667 668 669 671 673 675 677 682 687 686 681 679 680 682 683 685 687 689 691 693 695 696 698 701 703 705 707 710 713 714 715 719 723 726 728 729 731 732 734 735 738 740 743 746 748 750 752 753 753 752 752 754 757 760 762 764 766 767 768 770 771 771 772 773 774 775 776 777 778 779 780 782 783 784 786
656 657 658 659 660 660 661 662 662 662 663 664 665 667 670 671 671 674 680 684 681 676 675 676 678 679 682 685 687 689 691 693 694 696 698 700 702 705 706 707 710 715 718 720 722 724 726 727 728 729 732 735 738 741 744 745 747 747 747 748 751 753 755 757 759 761 763 765 767 768 768 769 770 771 772 773 774 775 776 777 779 780 781 782 783
651 651 652 653 654 655 655 656 658 659 659 660 661 663 664 666 668 669 673 677 679 676 673 672 674 676 677 680 682 684 687 689 690 691 693 696 698 699 701 703 706 709 712 714 716 719 722 723 724 726 728 730 733 735 737 740 741 742 743 746 749 751 753 755 757 758 760 762 764 764 765 766 767 768 769 770 772 773 774 775 777 778 779 780 781
647 646 645 646 648 649 650 651 653 654 655 656 656 657 658 661 664 668 671 674 677 678 675 672 671 672 674 675 677 679 682 684 685 686 688 691 694 695 697 699 701 704 706 708 712 715 717 718 719 721 724 726 728 729 731 734 736 737 740 743 746 749 751 752 753 755 758 759 760 760 762 763 765 765 766 768 770 771 772 774 775 776 777 778 779
640 640 640 641 642 644 646 648 649 650 650 651 651 652 653 655 659 663 666 670 675 678 679 676 673 672 672 673 674 675 677 679 680 682 684 687 689 692 694 696 697 699 702 704 707 710 711 712 714 716 719 722 725 726 728 730 731 733 737 740 742 745 747 748 750 752 753 754 755 757 758 760 761 763 764 766 768 769 770 771 773 774 775 775 776
632 633 634 635 637 640 642 643 645 646 647 647 647 647 649 650 653 656 660 664 667 670 673 676 677 676 674 673 672 673 674 674 676 677 679 682 685 688 691 693 694 696 698 700 703 705 708 710 712 714 717 720 722 723 725 727 728 731 733 736 738 740 742 744 746 748 749 750 751 753 755 758 760 762 763 764 765 766 767 769 770 771 772 773 773
622 625 629 631 633 636 638 639 641 642 643 644 644 644 645 646 648 651 655 659 661 662 664 668 672 675 675 673 671 671 670 670 671 673 675 677 680 684 688 690 692 694 695 696 699 702 705 708 710 713 716 717 719 720 722 723 725 727 729 731 733 736 737 739 741 742 743 746 747 750 752 755 757 759 760 761 762 763 764 765 766 768 769 770 771
614 619 625 629 631 633 635 636 637 638 639 640 641 641 641 642 643 644 646 649 653 656 657 658 660 664 667 668 668 668 667 665 665 666 668 670 675 680 684 686 689 691 691 692 695 699 703 706 709 711 713 715 716 718 720 721 722 724 726 728 730 732 734 737 739 739 740 741 743 745 748 751 753 754 756 758 758 759 761 762 764 765 767 768 768
612 617 623 627 629 631 633 634 634 635 635 636 636 637 637 638 638 638 639 640 642 643 645 647 648 650 653 656 659 662 662 660 660 660 662 665 670 674 677 680 682 684 686 689 692 696 699 703 705 707 709 710 713 715 717 719 720 722 724 725 727 728 731 733 735 736 736 737 739 741 743 746 749 751 753 754 755 757 758 759 761 763 764 765 765
615 619 624 628 630 631 632 632 633 633 633 634 634 635 635 636 637 637 637 638 638 638 639 639 639 641 643 646 650 654 657 658 660 661 662 664 666 668 670 673 675 679 683 687 690 693 696 697 699 701 703 706 709 711 713 715 717 719 721 722 723 725 726 728 729 730 733 736 737 739 741 743 746 748 750 751 753 754 755 757 759 760 762 762 763
620 624 628 631 632 632 632 632 632 633 633 634 634 635 635 636 636 636 636 637 638 639 639 639 639 639 641 642 645 650 655 659 662 662 662 663 664 665 666 668 671 675 678 683 687 690 691 692 695 697 700 703 705 707 709 712 713 715 716 718 720 721 722 722 724 727 731 734 736 738 739 740 742 745 747 748 750 751 753 754 756 757 758 759 760
626 630 634 635 635 635 634 635 634 634 634 635 635 636 636 636 636 636 636 636 637 639 640 641 641 641 642 643 644 646 650 655 658 658 658 660 661 663 664 665 667 670 672 676 681 684 686 689 692 695 698 700 702 704 707 708 709 711 712 714 716 716 716 717 721 724 727 730 733 735 737 738 739 742 744 746 748 749 750 752 753 754 755 756 757
633 636 639 641 640 639 638 638 638 637 637 636 636 637 637 637 637 637 636 636 637 637 638 640 640 641 642 643 644 645 646 649 650 652 653 655 657 659 661 663 666 669 672 674 677 679 682 686 689 692 694 697 699 701 703 705 706 707 709 709 710 711 713 716 719 722 725 728 732 735 736 736 738 740 743 745 746 746 748 749 750 752 753 753 754
642 644 646 647 646 645 644 643 643 643 641 640 638 639 640 640 640 639 638 639 639 638 638 638 639 639 641 642 644 645 645 646 647 648 650 652 654 656 659 662 666 670 673 674 675 677 680 683 687 689 692 693 695 697 699 700 702 703 705 706 707 709 712 714 716 718 722 727 732 735 736 737 738 740 742 743 744 745 745 747 748 749 750 751 752
651 651 651 652 652 651 650 649 648 647 646 644 643 643 644 645 643 642 642 643 643 643 641 639 639 639 640 642 643 644 645 645 645 646 648 651 653 655 657 660 664 667 668 670 672 675 678 681 683 686 688 689 691 693 694 695 697 698 700 702 704 707 709 710 712 716 721 725 728 731 733 736 739 740 741 741 742 742 743 744 745 747 748 749 749
660 658 657 657 657 657 655 654 653 652 651 649 648 648 648 648 648 647 646 646 647 647 646 644 642 640 640 642 644 644 645 645 645 646 648 650 652 655 657 659 661 663 665 667 670 674 677 679 681 683 685 687 689 691 692 693 694 695 696 698 700 702 704 706 709 713 717 721 723 725 729 733 736 738 739 739 740 740 740 741 743 744 745 746 747
668 666 664 663 663 662 660 659 658 657 656 654 653 652 652 652 652 652 651 650 650 651 650 648 646 643 642 644 646 646 647 648 647 646 647 649 652 656 659 660 661 663 666 669 672 674 677 679 681 683 684 686 688 690 691 693 695 696 697 698 700 702 704 706 708 711 713 716 719 721 723 727 730 734 735 736 736 737 737 739 740 742 743 744 745
675 673 671 669 667 666 664 663 662 661 661 659 658 657 657 658 658 657 656 655 655 654 653 651 651 650 649 650 649 648 650 652 650 648 648 650 653 657 660 662 664 666 669 672 675 676 677 679 680 682 684 685 686 688 690 691 693 695 697 699 701 703 705 707 709 711 713 715 717 720 722 723 726 729 731 732 732 733 734 736 738 739 740 741 742
680 678 675 673 671 669 668 667 666 665 665 664 663 662 661 662 662 661 661 660 659 658 657 656 657 657 656 655 653 650 651 653 653 650 650 652 654 657 661 664 666 669 672 674 675 676 677 678 679 681 682 683 685 686 688 689 691 693 695 697 700 702 704 705 707 709 711 713 716 718 721 723 723 725 727 728 729 730 731 733 735 736 738 738 739
686 683 680 677 676 675 673 672 670 670 669 668 667 666 666 666 666 666 666 665 664 663 662 661 662 662 661 659 658 655 654 656 657 656 655 656 657 660 664 666 668 670 671 673 674 675 676 677 678 679 680 681 683 684 686 687 689 691 692 694 696 698 699 700 702 704 706 708 711 713 716 718 720 723 724 725 726 727 728 730 731 733 735 736 737
692 689 686 684 683 681 679 678 677 677 676 674 673 672 672 672 672 671 671 669 668 667 666 665 666 666 665 665 664 662 661 663 663 663 662 661 662 664 667 669 670 671 672 672 674 674 675 676 677 678 679 680 681 682 684 686 687 688 689 690 692 693 694 695 697 699 701 704 706 708 710 712 715 719 721 722 723 725 725 726 728 730 731 733 735
697 695 693 691 690 688 686 686 685 684 682 681 680 679 679 677 676 675 674 673 672 671 670 670 670 670 670 670 669 668 667 668 668 668 667 667 667 668 670 671 671 671 671 672 673 674 675 676 677 678 678 679 680 682 683 684 685 686 687 688 689 690 692 693 695 697 700 702 704 706 707 709 712 714 716 718 721 722 723 723 725 726 728 730 732
702 700 699 698 696 694 694 693 692 690 689 688 687 686 684 683 681 681 680 679 678 677 676 675 675 674 674 673 672 671 671 671 672 672 671 671 671 672 673 673 673 673 673 673 674 675 675 676 677 678 679 680 681 682 683 684 684 685 686 687 688 689 691 692 694 696 698 699 701 703 705 707 709 711 713 715 717 719 720 721 722 723 725 727 729
707 706 704 703 702 701 700 699 697 696 696 694 693 692 691 689 688 688 687 686 686 684 683 683 682 681 679 678 677 675 675 675 675 675 675 675 676 676 677 677 677 677 676 676 676 676 677 678 679 680 681 681 682 683 684 685 686 687 687 688 688 689 690 690 691 693 694 696 698 700 702 704 706 708 710 712 714 716 717 718 719 721 722 724 726
713 711 710 708 707 706 705 704 703 702 700 699 698 698 697 696 695 695 694 693 693 692 691 690 688 687 686 684 683 681 681 680 680 679 680 680 680 681 681 681 681 680 680 679 679 678 679 679 680 681 682 683 683 684 685 687 688 688 688 688 688 687 688 688 689 691 692 694 696 698 700 702 703 705 707 709 710 712 714 715 717 718 720 721 723
719 717 715 714 713 712 711 710 709 707 705 704 704 703 703 702 701 700 699 699 698 696 695 694 693 691 690 689 687 686 685 684 683 683 684 684 684 684 684 684 684 684 683 682 681 681 680 681 682 683 684 684 685 685 686 687 688 689 689 688 688 687 687 687 689 690 691 693 694 696 698 699 700 702 703 706 707 709 711 713 714 716 718 719 721
723 722 721 720 719 718 717 716 714 712 711 710 710 709 708 707 706 705 704 703 702 700 699 698 697 696 695 693 692 690 690 689 688 688 688 688 688 688 687 687 687 686 686 685 684 683 683 683 684 685 685 686 686 686 686 687 688 689 689 688 688 687 687 687 688 689 690 691 693 694 695 696 697 698 700 702 705 707 709 710 712 714 716 717 719
728 727 726 725 724 723 722 721 719 718 717 716 715 714 713 712 710 709 709 708 706 705 704 703 702 701 700 698 697 696 695 694 693 692 692 692 692 692 691 690 690 690 689 688 688 687 687 687 687 687 687 687 687 686 686 687 687 688 688 688 688 687 687 687 688 689 690 690 691 691 692 693 694 696 697 699 701 703 705 707 709 711 713 715 716
733 732 731 730 729 728 727 726 725 724 723 722 720 719 718 716 715 715 714 713 711 710 709 708 707 707 705 704 703 702 700 699 697 697 696 696 696 697 696 695 695 694 693 693 692 692 692 691 691 690 690 689 689 688 688 688 688 688 688 688 688 688 688 688 688 688 689 689 689 689 690 691 692 693 695 697 699 701 703 705 707 709 711 712 714
737 736 735 734 733 733 732 731 730 729 728 727 725 724 723 721 720 720 719 718 716 715 714 714 713 712 711 710 708 707 706 704 703 703 702 702 701 701 701 700 700 699 699 698 697 697 696 695 694 693 692 691 691 690 689 689 689 689 689 689 689 688 688 688 688 688 688 688 688 688 689 689 690 692 693 695 697 699 701 703 705 707 708 710 711
741 740 739 738 737 737 736 735 734 733 732 731 730 729 728 727 726 726 725 723 722 721 721 720 718 717 717 715 714 713 712 711 710 709 708 707 706 705 705 704 705 704 704 703 701 700 699 698 697 696 694 693 692 692 691 690 690 690 690 690 689 689 688 688 688 688 688 688 688 688 688 689 690 691 692 694 696 698 700 702 704 705 706 708 709